STARLINK-34774

Last updated on Tue Dec 16 2025 00:02:05 GMT+0000 (Coordinated Universal Time)

1 66485U 25263A 25349.36465513 .00036610 00000+0 87844-3 0 9992 2 66485 43.0003 110.2896 0001493 292.4673 67.6025 15.40735368 5966
UTC large
Height (km)
Speed (km/s)
/
Latitude / Longitude
Inclination (degrees)
Orbital Period (minutes)
Azimuth
Elevation
Range (km)
Doppler Factor

Next 0 passes for location: London (51.5072 / 0.1276)

Sorry there are no passes over London.